Regional Weather Roundup
Issued by NWS State College, PA

Home | Current Version | Previous Version | Text Only | Print | Product List | Glossary On
Versions: 1 2 3 4 5 6 7 8 9 10 11 12 13 14 15 16 17 18 19 20 21 22 23 24 25 26 27 28 29 30 31 32 33 34 35 36 37 38 39 40 41 42 43 44 45 46 47 48 49 50
000
ASUS41 KCTP 291010
RWRCTP

REGIONAL WEATHER ROUNDUP
NATIONAL WEATHER SERVICE STATE COLLEGE PA
600 AM EDT SUN MAR 29 2015

Note: "fair" indicates few or no clouds below 12,000 feet with no
significant weather and/or obstructions to visibility.

* = STATION THAT DOES NOT REPORT PRECIPITATION /E.G. RAIN...SNOW...ETC/
    THUNDER OR FOG.

PAZ002>004-007>009-013>016-020>023-029>032-291100-
WESTERN PENNSYLVANIA

CITY           SKY/WX    TMP DP  RH WIND       PRES   REMARKS
ERIE           CLEAR     19  11  70 S5        30.30R WCI  12
MEADVILLE      CLEAR     15  10  80 S5        30.25S WCI   8
FRANKLIN*      CLEAR     12   7  79 SW6       30.27R WCI   3
NEW CASTLE     FAIR      11   9  92 CALM      30.32R
BEAVER COUNTY  NOT AVBL
BUTLER*        CLEAR     12   7  79 CALM      30.31R
PITTSBURGH INT CLEAR     16   8  71 CALM      30.30S
PITTSBURGH     CLEAR     17   5  59 SW7       30.29S WCI   8
INDIANA*       CLEAR     12   9  85 CALM      30.32S
LATROBE        CLEAR     14   7  73 SW3       30.33S
WASHINGTON CO* CLEAR     10   7  85 CALM      30.32S
$$

PAZ004>006-010>012-017>019-024>028-033>037-041-042-045-046-049>053-291100-
CENTRAL PENNSYLVANIA

CITY           SKY/WX    TMP DP  RH WIND       PRES   REMARKS
BRADFORD       CLEAR      6   2  83 CALM      30.18R
DUBOIS         CLEAR     13   7  77 W7        30.22R WCI   3
CLEARFIELD     CLEAR     14   7  73 SW5       30.26R WCI   6
JOHNSTOWN      CLEAR     14   6  70 W6        30.19R WCI   5
ALTOONA        CLEAR     17   7  64 NW8       30.26R WCI   7
STATE COLLEGE  CLEAR     18   9  68 W6        30.26R WCI   9
WILLIAMSPORT   CLEAR     20   9  62 W9        30.28R WCI   9
SELINSGROVE    CLEAR     22   9  57 W7        30.29R WCI  13
FT INDIANTOWN  CLEAR     23   6  48 NW8G16    30.26R WCI  14
CAPITAL CITY   CLEAR     22   8  55 W9        30.29R WCI  12
HARRISBURG     CLEAR     24  11  57 NW14      30.28R WCI  12
YORK           CLEAR     22   9  57 W7        30.28R WCI  13
$$

PAZ038>040-043-044-047-048-054-055-060>062-067>071-291100-
EASTERN PENNSYLVANIA

CITY           SKY/WX    TMP DP  RH WIND       PRES   REMARKS
SCRANTON       CLEAR     18   6  59 NW6       30.21R WCI  10
MOUNT POCONO   CLEAR     15   5  64 NW17G24   30.09R WCI  -1
ALLENTOWN      CLEAR     22   6  50 NW7       30.23R WCI  13
QUAKERTOWN*    SUNNY     21   7  53 N6        30.23R WCI  14
READING        CLEAR     23   5  46 NW10      30.25R WCI  12
LANCASTER      CLEAR     22   9  57 NW12      30.26R WCI  10
COATESVILLE    SUNNY     23   9  54 NW9       30.23R WCI  13
POTTSTOWN      CLEAR     21   6  52 NW6       30.25R WCI  13
BLUE BELL      CLEAR     27  10  50 CALM      30.23R
DOYLESTOWN     PTCLDY    21   7  54 NW8       30.21R WCI  11
WILLOW GROVE   NOT AVBL
NORTH PHILA    CLEAR     26   5  40 NW10      30.25R
PHILADELPHIA   PTCLDY    26   5  40 NW10      30.26R
$$


USA.gov is the U.S. government's official web portal to all federal, state and local government web resources and services.